Location: ????????
(55.6333°N, 37.7000°E)
Time: 14:34:36
(UTC+00:00)

Landsat 5 - Pass Details

Date: 19 May 2025
Orbit: 510 x 610 km, 98.1° (Epoch: 20 June)

Event Time Altitude Azimuth Distance (km) Brightness Sun altitude
Rises 20:15:34 0° 19° (NNE) 2,804 7.9 -13.0°
Reaches altitude 10° 20:17:47 10° 26° (NNE) 1,916 6.8 -13.0°
Maximum altitude 20:21:48 46° 100° (E) 808 4.0 -13.2°
Enters shadow 20:24:17 21° 164° (SSE) 1,351 4.7 -13.3°
